Location: Pagani
(40.7500°N, 14.6167°E)
Time: 13:42:14
(UTC+00:00)

SL-16 R/B - Pass Details

Date: 15 May 2026
Orbit: 841 x 844 km, 71.0° (Epoch: 10 June)

Event Time Altitude Azimuth Distance (km) Brightness Sun altitude
Rises 19:23:24 0° 343° (NNW) 3,411 6.4 -12.2°
Reaches altitude 10° 19:26:04 10° 352° (N) 2,473 5.3 -12.6°
Maximum altitude 19:31:15 35° 58° (ENE) 1,329 3.1 -13.4°
Enters shadow 19:34:44 19° 113° (ESE) 1,929 3.5 -13.9°
